Tracking 18630 objects as of 22-May-2017
HD Live streaming from Space Station
objects crossing your sky now

TRITON 1

Track TRITON 1 now!
10-day predictions
TRITON 1 is classified as:


NORAD ID: 39427
Int'l Code: 2013-066M
Perigee: 594.7 km
Apogee: 758.1 km
Inclination: 97.6 °
Period: 98.1 minutes
Semi major axis: 7047 km
RCS: Unknown
Launch date: November 21, 2013
Source: United Kingdom (UK)
Launch site: Orenburg, Russia (OREN)
Uplink (MHz): 435.xxx
Downlink (MHz): 145.818/145.823
Beacon (MHz): 2408.000
Mode: 1200bps RC-BPSK CW
Call sign: TRIV0 TRIV1
Status: Inactive

Your satellite tracking list
Your tracking list is empty





NASA's NSSDC Master Catalog

Two Line Element Set (TLE):
1 39427U 13066M   17141.93861019 +.00000279 +00000-0 +52326-4 0  9992
2 39427 097.6386 159.0533 0115937 073.1408 288.2474 14.67442321187006
Source of the keplerian elements: Caltech